Terminal Aerodrome Forecast
Issued by NWS

Home | Current Version | Previous Version | Text Only | Print | Product List | Glossary On
Versions: 1 2 3 4 5 6 7 8 9 10 11 12 13 14 15 16
000
FTUS45 KGJT 190104 AAA
TAFASE
TAF AMD
KASE 190104Z 1901/1924 14010KT P6SM SCT090 BKN200
     FM190200 17008KT P6SM FEW090 BKN200
     FM190700 19006KT P6SM SCT050 OVC150
      TEMPO 1911/1915 -RA BKN045
     FM191500 VRB04KT P6SM VCSH OVC050
      TEMPO 1915/1919 -RA BKN045
     FM191900 35006KT P6SM VCSH OVC040=

USA.gov is the U.S. government's official web portal to all federal, state and local government web resources and services.